Regional Weather Roundup
Issued by NWS Cleveland, OH

Home | Current Version | Previous Version | Text Only | Print | Product List | Glossary Off
Versions: 1 2 3 4 5 6 7 8 9 10 11 12 13 14 15 16 17 18 19 20 21 22 23 24 25 26 27 28 29 30 31 32 33 34 35 36 37 38 39 40 41 42 43 44 45 46 47 48 49 50

000
ASUS41 KCLE 300510
RWRCLE
OHIO REGIONAL WEATHER ROUNDUP
NATIONAL WEATHER SERVICE CLEVELAND, OH
1200 AM EST FRI JAN 30 2015

NOTE: "FAIR" INDICATES FEW OR NO CLOUDS BELOW 12,000 FEET WITH NO
SIGNIFICANT WEATHER AND/OR OBSTRUCTIONS TO VISIBILITY.

OHZ001>008-015>018-024>027-034-035-043-044-300600-
   NORTHWEST OHIO

CITY           SKY/WX    TMP DP  RH WIND       PRES   REMARKS
DEFIANCE       FLURRIES  32  27  81 W7        30.12R WCI  26
FINDLAY        CLOUDY    33  27  78 NW12      30.09R WCI  24
TOLEDO EXPRESS CLOUDY    31  22  69 NW12      30.09R WCI  22
TOLEDO EXEC    CLOUDY    32  21  64 NW12G21   30.10R WCI  23
LIMA           CLOUDY    33  26  75 NW14      30.10R WCI  23
$$

OHZ009>014-019>023-028>033-038-089-300600-
   NORTHEAST OHIO

CITY           SKY/WX    TMP DP  RH WIND       PRES   REMARKS
CLE-HOPKINS    FLURRIES  32  28  85 W15       30.04R WCI  22
CLE-LAKEFRONT  CLOUDY    32  29  88 W17       30.01R WCI  21
CUY CO. ARPT   NOT AVBL
LORAIN-ELYRIA  CLOUDY    31  28  89 NW14G25   30.03R WCI  21
ASHTABULA      CLOUDY    30  27  88 NW10      29.96S WCI  21
AKRON-CANTON   LGT SNOW  31  27  85 NW9       29.99R FOG     WCI  23
WOOSTER        LGT SNOW  30  27  88 NW14      30.02R FOG     WCI  19
MANSFIELD      FRZ RAIN  31  28  89 NW9       30.03R FOG     WCI  23
YOUNGSTOWN     FRZ DRZL  29  27  92 NW9       29.95S FOG     WCI  20
$$

OHZ042-051>053-060>062-070>072-077>081-300600-
  SOUTHWEST OHIO

CITY           SKY/WX    TMP DP  RH WIND       PRES   REMARKS
CINC-COVINGTON CLOUDY    34  28  79 W15       30.20R WCI  24
CINC-LUNKEN    CLOUDY    34  28  79 W12       30.22R WCI  25
HAMILTON       CLOUDY    34  30  85 W12       30.20S WCI  25
DAYTON         CLOUDY    33  29  85 NW14      30.15R WCI  23
WRIGHT-PAT AFB CLOUDY    33  29  88 NW8       30.14R WCI  26
DAYTON GENERAL CLOUDY    33  30  88 W10       30.15R WCI  25
WILMINGTON     CLOUDY    32  28  85 NW10      30.14R WCI  24
$$

OHZ036-037-039>041-045>050-054>059-063>069-073>076-082>088-300600-
  CENTRAL AND SOUTHEAST OHIO

CITY           SKY/WX    TMP DP  RH WIND       PRES   REMARKS
COLUMBUS       FLURRIES  32  28  86 NW13G23   30.10R WCI  22
OSU AIRPORT    CLOUDY    32  28  85 NW13      30.10R WCI  22
BOLTON FIELD   CLOUDY    32  29  88 NW12G22   30.10S WCI  23
RICKENBACK AFB CLOUDY    32  30  92 W12       30.11R WCI  23
NEWARK         CLOUDY    33  29  85 NW12      30.07R FOG     WCI  24
MARION         CLOUDY    32  27  81 NW16G23   30.08R WCI  21
LANCASTER      CLOUDY    33  30  88 NW12      30.10R FOG     WCI  24
ZANESVILLE     SNOW      32  30  92 NW9       30.05R VSB 1/2 WCI  24
NEW PHILLY     LGT SNOW  32  29  88 W7        30.04R FOG     WCI  26
$$



USA.gov is the U.S. government's official web portal to all federal, state and local government web resources and services.